This is the latest recevied weather packets stored in our database for station/object KB3VSP. If no packets are shown the sender has not sent any weather packets the latest 10 day(s).
| Time | Temp. | Humidity | Pressure | Rain* | Wind** | Luminosity | Snow |
|---|---|---|---|---|---|---|---|
| 1777212781 | 10.56° C | 87% | 1020.4 hPa | 0 mm | - | 119 W/m² | - |
| 1777212476 | 10° C | 87% | 1020.2 hPa | 0 mm | - | 129 W/m² | - |
| 1777212171 | 10° C | 87% | 1020.3 hPa | 0 mm | - | 100 W/m² | - |
| 1777211866 | 9.44° C | 86% | 1020.4 hPa | 0 mm | - | 113 W/m² | - |
| 1777211565 | 10° C | 86% | 1020.5 hPa | 0 mm | - | 83 W/m² | - |
| 1777211261 | 10° C | 87% | 1020.4 hPa | 0 mm | - | 130 W/m² | - |
| 1777210958 | 10° C | 91% | 1020.1 hPa | 0 mm | - | 132 W/m² | - |
| 1777210657 | 10° C | 91% | 1020.1 hPa | 0 mm | - | 132 W/m² | - |
| 1777210354 | 8.89° C | 94% | 1020 hPa | 0 mm | - | 121 W/m² | - |
| 1777210052 | 8.89° C | 94% | 1020.3 hPa | 0 mm | - | 121 W/m² | - |
| 1777209747 | 8.89° C | 95% | 1020.4 hPa | 0 mm | - | 115 W/m² | - |
| 1777209442 | 8.33° C | 97% | 1020.1 hPa | 0 mm | - | 84 W/m² | - |
| 1777209139 | 8.33° C | 97% | 1020.3 hPa | 0 mm | - | 84 W/m² | - |
| 1777208835 | 8.33° C | 97% | 1020.3 hPa | 0 mm | - | 72 W/m² | - |
| 1777208532 | 8.33° C | 98% | 1020.3 hPa | 0 mm | - | 54 W/m² | - |
| 1777208229 | 8.33° C | 98% | 1020.3 hPa | 0 mm | - | 42 W/m² | - |
| 1777207924 | 7.78° C | 98% | 1020.4 hPa | 0 mm | - | 45 W/m² | - |
| 1777207619 | 7.78° C | 98% | 1020.2 hPa | 0 mm | - | 42 W/m² | - |
| 1777207314 | 7.78° C | 99% | 1020 hPa | 0 mm | - | 44 W/m² | - |
| 1777207008 | 7.78° C | 99% | 1019.9 hPa | 0 mm | - | 43 W/m² | - |
| 1777206705 | 7.78° C | 99% | 1020.1 hPa | 0 mm | - | 47 W/m² | - |
| 1777206399 | 7.78° C | 99% | 1019.6 hPa | 0 mm | - | 43 W/m² | - |
| 1777206094 | 7.78° C | 99% | 1019.7 hPa | 0 mm | - | 45 W/m² | - |
| 1777205791 | 7.78° C | 99% | 1019.9 hPa | 0 mm | - | 43 W/m² | - |
| 1777205488 | 7.22° C | 99% | 1019.4 hPa | 0 mm | - | 43 W/m² | - |
* Rain latest hour (hover to see other rain measurements)
** Current wind speed in m/s (hover to see current wind gust speed)